Location: Miles
(41.4492°N, 81.6087°W)
Time: 09:48:10
(UTC+00:00)

Courier 1B - Pass Details

Date: 20 September 2024
Orbit: 962 x 1208 km, 28.3° (Epoch: 11 October)

Event Time Altitude Azimuth Distance (km) Brightness Sun altitude
Rises 17:44:16 0° 231° (SW) 3,715 11.0 48.9°
Reaches altitude 10° 17:47:25 10° 218° (SW) 2,801 10.7 48.8°
Maximum altitude 17:52:40 24° 167° (SSE) 2,038 10.4 48.6°
Drops below altitude 10° 17:58:09 10° 117° (ESE) 2,944 10.3 48.3°
Sets 18:01:34 0° 105° (ESE) 3,948 10.7 48.2°
